CAPE
0 0 0 0 0 0 0 127 662 1209 1252 1128 1275 1353 1440 1672 1750 1841 2052 1969 1974 2116 2098 1914 1281 1140 1101 1034 766 558 1212 1306
0 0 0 0 0 0 0 0 0 0 935 1114 1004 1103 1187 1300 1442 1405 1464 1849 1835 1859 1858 1820 1331 1042 1047 1049 894 625 1046 1260
0 0 0 0 0 0 0 0 0 0 0 65 833 1106 1897 1701 1444 1315 1184 1347 1575 1710 1621 1620 1431 1060 977 1020 941 1455 1349 1337
0 0 0 0 0 0 0 0 0 0 0 0 3 19 477 1185 1209 1005 1138 1122 1159 1211 1497 1445 1380 1654 1571 950 1601 1499 1612 1439
0 0 0 0 0 0 0 0 0 0 0 0 0 0 0 64 1755 2407 2020 1239 1897 1362 1428 1814 1471 1640 1548 1663 1509 1825 1769 1502
0 0 0 0 0 0 0 0 0 0 0 0 0 0 0 0 0 968 2099 2604 2021 1649 1807 1826 1653 1717 1834 1621 1619 1791 1697 1483
0 0 0 0 0 0 0 0 0 0 0 0 0 0 0 0 0 0 1021 2301 2250 2188 2031 2083 2027 1913 1901 1748 1714 1778 1656 1458
0 0 0 0 0 0 0 0 0 0 0 0 0 0 0 0 0 0 0 806 1664 2297 2052 2112 2314 2037 1921 1841 1702 1548 1604 1584
0 0 0 0 0 0 0 0 0 0 0 0 0 0 0 0 0 0 0 0 740 1722 2021 1766 2221 2036 1762 1766 1650 1588 1482 1364
0 0 0 0 0 0 0 0 0 0 0 0 0 0 0 0 0 0 0 0 4 808 1426 1705 1427 1473 1369 1650 1898 1512 1439 1331
0 0 0 0 0 0 0 0 0 0 0 0 0 0 0 0 0 0 0 0 0 13 421 1332 1202 1213 1223 1310 1954 1516 1321 1251
0 0 0 0 0 0 0 0 0 0 0 0 0 0 0 0 0 0 0 0 0 0 25 616 1201 1073 1120 1000 1257 1782 1208 1421
0 0 0 0 0 0 0 0 0 0 0 0 0 0 0 0 0 0 0 0 0 0 0 56 986 1589 930 778 842 1435 1832 1585
0 0 0 0 0 0 0 0 0 0 0 0 0 0 0 0 0 0 0 0 0 12 12 58 859 1915 865 630 509 436 907 1446
0 0 0 0 0 0 0 0 0 0 0 0 0 0 0 0 0 0 0 0 0 0 9 38 212 1112 941 563 465 316 340 754
0 0 0 0 0 0 0 0 0 0 0 0 0 0 0 0 0 0 0 0 0 0 0 51 83 219 740 615 286 80 390 741
0 0 0 0 0 0 0 0 0 0 0 0 0 0 0 0 0 0 0 0 0 0 0 6 91 422 507 134 330 236 245 412
0 0 0 0 0 0 0 0 0 0 0 0 0 0 0 0 0 0 0 0 0 0 0 0 57 185 579 571 12 22 30 0
0 0 0 0 0 0 0 0 0 0 0 0 0 0 0 0 0 0 0 0 0 0 0 6 50 29 552 615 609 69 168 142
0 0 0 0 0 0 0 0 0 0 0 0 0 0 0 0 0 1 0 0 0 0 0 5 99 228 251 766 503 511 328 381
CIN
-0 -0 -0 -0 -0 -0 -0 -156 -32 -14 -5 -39 -35 -20 -14 -34 -38 -27 -22 -32 -33 -28 -22 -23 -62 -68 -55 -58 -70 -76 -0 -0
-0 -0 -0 -0 -0 -0 -0 -0 -0 -0 -35 -1 -8 -50 -33 -22 -41 -49 -31 -33 -30 -44 -29 -27 -51 -69 -45 -37 -52 -58 -10 -0
-0 -0 -0 -0 -0 -0 -0 -0 -0 -0 -0 -86 -37 -24 -0 -0 -3 -6 -35 -41 -32 -22 -39 -38 -33 -51 -46 -28 -23 -0 -0 -0
-0 -0 -0 -0 -0 -0 -0 -0 -0 -0 -0 -0 -76 -166 -35 -21 -17 -20 -55 -37 -37 -39 -21 -36 -26 -0 -0 -21 -0 -0 -0 -0
-0 -0 -0 -0 -0 -0 -0 -0 -0 -0 -0 -0 -0 -0 -0 -0 -0 -0 -0 -19 -1 -14 -14 -1 -0 -0 -0 -0 -0 -0 -0 -0
-0 -0 -0 -0 -0 -0 -0 -0 -0 -0 -0 -0 -0 -0 -0 -0 -0 -12 -0 -0 -0 -0 -0 -0 -0 -0 -0 -0 -0 -0 -0 -0
-0 -0 -0 -0 -0 -0 -0 -0 -0 -0 -0 -0 -0 -0 -0 -0 -0 -0 -3 -0 -0 -0 -0 -0 -0 -0 -0 -0 -0 -0 -0 -0
-0 -0 -0 -0 -0 -0 -0 -0 -0 -0 -0 -0 -0 -0 -0 -0 -0 -0 -0 -8 -0 -0 -0 -0 -0 -0 -0 -0 -0 -0 -0 -0
-0 -0 -0 -0 -0 -0 -0 -0 -0 -0 -0 -0 -0 -0 -0 -0 -0 -0 -0 -1 -3 -0 -0 -0 -0 -0 -0 -0 -0 -0 -0 -0
-0 -0 -0 -0 -0 -0 -0 -0 -0 -0 -0 -0 -0 -0 -0 -0 -0 -0 -0 -0 -0 -12 -0 -0 -0 -0 -0 -0 -0 -0 -0 -0
-0 -0 -0 -0 -0 -0 -0 -0 -0 -0 -0 -0 -0 -0 -0 -0 -0 -0 -0 -0 -0 -0 -40 -0 -0 -0 -0 -0 -0 -0 -0 -0
-0 -0 -0 -0 -0 -0 -0 -0 -0 -0 -0 -0 -0 -0 -0 -0 -0 -0 -0 -0 -0 -0 -0 -14 -0 -0 -0 -4 -3 -0 -0 -0
-0 -0 -0 -0 -0 -0 -0 -0 -0 -0 -0 -0 -0 -0 -0 -0 -0 -0 -0 -0 -0 -0 -0 -154 -0 -0 -0 -0 -3 -0 -0 -0
-0 -0 -0 -0 -0 -0 -0 -0 -0 -0 -0 -0 -0 -0 -0 -0 -0 -0 -0 -0 -0 -0 -0 -54 -0 -0 -0 -2 -0 -0 -0 -0
-0 -0 -0 -0 -0 -0 -0 -0 -0 -0 -0 -0 -0 -0 -0 -0 -0 -0 -0 -0 -0 -0 -0 -0 -55 -0 -0 -3 -0 -3 -0 -0
-0 -0 -0 -0 -0 -0 -0 -0 -0 -0 -0 -0 -0 -0 -0 -0 -0 -0 -0 -0 -0 -0 -0 -0 -8 -6 -0 -0 -1 -56 -0 -0
-0 -0 -0 -0 -0 -0 -0 -0 -0 -0 -0 -0 -0 -0 -0 -0 -0 -0 -0 -0 -0 -0 -0 -0 -23 -0 -0 -10 -3 -6 -15 -1
-0 -0 -0 -0 -0 -0 -0 -0 -0 -0 -0 -0 -0 -0 -0 -0 -0 -0 -0 -0 -0 -0 -0 -0 -0 -28 -0 -0 -8 -10 -62 -3
-0 -0 -0 -0 -0 -0 -0 -0 -0 -0 -0 -0 -0 -0 -0 -0 -0 -0 -0 -0 -0 -0 -0 -0 -0 -21 -0 -0 -0 -125 -46 -60
-0 -0 -0 -0 -0 -0 -0 -0 -0 -0 -0 -0 -0 -0 -0 -0 -0 -0 -0 -0 -0 -0 -0 -0 -45 -15 -0 -0 -0 -0 -2 -0
Wind_Speed
nan nan nan nan nan nan nan 46 45 45 44 41 31 25 23 24 23 24 24 25 23 20 19 20 20 22 21 19 20 16 9 12
nan nan nan nan nan nan nan nan nan nan 38 37 36 27 26 25 25 24 24 25 25 23 22 21 21 23 24 21 20 17 9 12
nan nan nan nan nan nan nan nan nan nan nan nan 33 32 28 27 31 31 27 25 29 26 23 24 24 23 24 25 21 17 14 13
nan nan nan nan nan nan nan nan nan nan nan nan nan nan 31 28 25 33 33 29 28 29 28 26 26 22 26 26 20 15 16 14
nan nan nan nan nan nan nan nan nan nan nan nan nan nan nan nan 34 33 30 32 34 32 33 27 19 23 22 26 22 19 18 17
nan nan nan nan nan nan nan nan nan nan nan nan nan nan nan nan nan 32 34 33 30 35 36 30 21 21 21 23 20 23 20 19
nan nan nan nan nan nan nan nan nan nan nan nan nan nan nan nan nan nan 36 36 35 32 36 33 31 25 26 22 21 21 19 21
nan nan nan nan nan nan nan nan nan nan nan nan nan nan nan nan nan nan nan 40 38 36 36 36 37 33 28 25 21 22 24 19
nan nan nan nan nan nan nan nan nan nan nan nan nan nan nan nan nan nan nan nan 40 41 37 39 40 40 34 30 28 22 23 22
nan nan nan nan nan nan nan nan nan nan nan nan nan nan nan nan nan nan nan nan nan 47 44 43 43 45 45 36 35 30 25 23
nan nan nan nan nan nan nan nan nan nan nan nan nan nan nan nan nan nan nan nan nan nan 50 48 47 48 45 46 39 36 32 29
nan nan nan nan nan nan nan nan nan nan nan nan nan nan nan nan nan nan nan nan nan nan nan 52 52 51 48 45 43 42 39 38
nan nan nan nan nan nan nan nan nan nan nan nan nan nan nan nan nan nan nan nan nan nan nan nan 57 55 54 49 49 44 46 41
nan nan nan nan nan nan nan nan nan nan nan nan nan nan nan nan nan nan nan nan nan nan nan nan 57 59 59 62 53 67 48 47
nan nan nan nan nan nan nan nan nan nan nan nan nan nan nan nan nan nan nan nan nan nan nan nan 56 57 58 68 65 59 54 48
nan nan nan nan nan nan nan nan nan nan nan nan nan nan nan nan nan nan nan nan nan nan nan nan nan 59 61 66 73 nan 39 52
nan nan nan nan nan nan nan nan nan nan nan nan nan nan nan nan nan nan nan nan nan nan nan nan nan 60 56 61 64 66 67 50
nan nan nan nan nan nan nan nan nan nan nan nan nan nan nan nan nan nan nan nan nan nan nan nan nan 46 50 53 nan nan nan nan
nan nan nan nan nan nan nan nan nan nan nan nan nan nan nan nan nan nan nan nan nan nan nan nan nan nan 45 51 56 nan 68 69
nan nan nan nan nan nan nan nan nan nan nan nan nan nan nan nan nan nan nan nan nan nan nan nan nan 43 46 44 50 54 60 66
Wind_Direction
nan nan nan nan nan nan nan 245 249 250 252 253 251 262 267 276 277 278 277 275 278 278 281 287 294 295 296 299 301 303 302 291
nan nan nan nan nan nan nan nan nan nan 250 251 246 259 283 288 286 284 277 272 276 277 276 279 286 288 288 292 294 292 303 288
nan nan nan nan nan nan nan nan nan nan nan nan 262 265 266 273 284 291 286 284 278 265 269 271 274 276 280 285 289 285 291 279
nan nan nan nan nan nan nan nan nan nan nan nan nan nan 272 264 270 273 277 284 285 284 267 264 268 266 275 280 280 284 275 265
nan nan nan nan nan nan nan nan nan nan nan nan nan nan nan nan 273 279 280 287 275 282 280 260 262 259 262 275 284 279 267 264
nan nan nan nan nan nan nan nan nan nan nan nan nan nan nan nan nan 266 272 273 276 277 272 278 265 262 257 264 273 274 268 263
nan nan nan nan nan nan nan nan nan nan nan nan nan nan nan nan nan nan 267 265 271 274 275 272 271 261 258 258 268 274 270 261
nan nan nan nan nan nan nan nan nan nan nan nan nan nan nan nan nan nan nan 264 262 268 269 272 269 267 259 255 259 263 274 271
nan nan nan nan nan nan nan nan nan nan nan nan nan nan nan nan nan nan nan nan 260 261 263 268 267 264 264 255 251 252 257 267
nan nan nan nan nan nan nan nan nan nan nan nan nan nan nan nan nan nan nan nan nan 255 260 261 265 265 263 259 251 249 252 252
nan nan nan nan nan nan nan nan nan nan nan nan nan nan nan nan nan nan nan nan nan nan 253 261 260 264 265 263 258 249 249 247
nan nan nan nan nan nan nan nan nan nan nan nan nan nan nan nan nan nan nan nan nan nan nan 250 260 258 260 261 263 252 244 243
nan nan nan nan nan nan nan nan nan nan nan nan nan nan nan nan nan nan nan nan nan nan nan nan 252 258 254 256 257 255 249 245
nan nan nan nan nan nan nan nan nan nan nan nan nan nan nan nan nan nan nan nan nan nan nan nan 250 252 252 249 250 238 236 240
nan nan nan nan nan nan nan nan nan nan nan nan nan nan nan nan nan nan nan nan nan nan nan nan 252 252 249 247 246 251 251 238
nan nan nan nan nan nan nan nan nan nan nan nan nan nan nan nan nan nan nan nan nan nan nan nan nan 254 250 241 239 nan 243 237
nan nan nan nan nan nan nan nan nan nan nan nan nan nan nan nan nan nan nan nan nan nan nan nan nan 254 251 245 240 237 240 202
nan nan nan nan nan nan nan nan nan nan nan nan nan nan nan nan nan nan nan nan nan nan nan nan nan 251 250 243 nan nan nan nan
nan nan nan nan nan nan nan nan nan nan nan nan nan nan nan nan nan nan nan nan nan nan nan nan nan nan 245 245 246 nan 237 243
nan nan nan nan nan nan nan nan nan nan nan nan nan nan nan nan nan nan nan nan nan nan nan nan nan 243 234 243 245 245 239 242